Regional Weather Roundup
Issued by NWS Lake Charles, LA

Current Version | Previous Version | Text Only | Print | Product List | Glossary On
Versions: 1 2 3 4 5 6 7 8 9 10 11 12 13 14 15 16 17 18 19 20 21 22 23 24 25 26 27 28 29 30 31 32 33 34 35 36 37 38 39 40 41 42 43 44 45 46 47 48 49 50
000
ASUS44 KLCH 281410
RWRLCH
REGIONAL WEATHER ROUNDUP
NATIONAL WEATHER SERVICE LAKE CHARLES LA
900 AM CDT SAT MAY 28 2016

Note: "fair" indicates few or no clouds below 12,000 feet with no
significant weather and/or obstructions to visibility.


ACROSS SOUTHEAST TEXAS

CITY           SKY/WX    TMP DP  RH WIND       PRES   REMARKS
BEAUMONT       SUNNY     80  69  69 SW6       29.92R
BEAUMONT CITY  FAIR      78  69  72 SW5       29.94R
ORANGE         SUNNY     78  67  70 S3        29.95R
JASPER         SUNNY     71  65  82 CALM      29.96R
$$

ACROSS CENTRAL LOUISIANA

CITY           SKY/WX    TMP DP  RH WIND       PRES   REMARKS
LEESVILLE      SUNNY     73  65  76 VRB2      29.95R
FULLERTON      FAIR      72  64  76 CALM      29.93R
ALEXANDRIA INT CLOUDY    72  68  87 E7        29.94R
ESLER FIELD    CLOUDY    71  67  87 SE6       29.96R
DERIDDER       FAIR      73  67  81 CALM      29.96R
OAKDALE        CLOUDY    71  67  87 CALM      29.96R
OPELOUSAS      FAIR      71  67  85 CALM      29.96R
$$

ACROSS SOUTHWEST AND SOUTH CENTRAL LOUISIANA

CITY           SKY/WX    TMP DP  RH WIND       PRES   REMARKS
SULPHUR        SUNNY     77  68  74 NE3       29.94R
LAKE CHARLES   SUNNY     75  68  78 E8        29.94R
CHENNAULT INT  SUNNY     68  66  94 E7        29.93S
CAMERON PHI    SUNNY     81  72  74 CALM      29.97R
DEQUINCY       FAIR      72  67  83 CALM      29.93R
JENNINGS       FAIR      72  66  83 NE5       29.97R
LAFAYETTE      CLOUDY    73  67  81 NE6       29.96R
NEW IBERIA     CLOUDY    76  67  73 NE7       29.96R
ABBEVILLE      FAIR      74  70  89 NE3       29.95R
PATTERSON      PTSUNNY   81  66  60 SE5       29.96R
SALT POINT       N/A     77  69  76 E5        29.94R
$$

SELECTED SITES ACROSS THE REGION

CITY           SKY/WX    TMP DP  RH WIND       PRES   REMARKS
HOUSTON BUSH   SUNNY     74  69  85 S7        29.93R
HOUSTON HOBBY  MOSUNNY   76  71  85 S6        29.93R
GALVESTON      SUNNY     79  73  82 S13       29.94R
COLLEGE STAT   CLOUDY    70  69  97 SW6       29.94R
CONROE         SUNNY     73  69  87 S7        29.94R
HUNTSVILLE     MOSUNNY   72  67  84 W5        29.94R
LUFKIN         SUNNY     71  66  84 CALM      29.94R
SHREVEPORT     MOSUNNY   72  66  81 CALM      29.94R
MONROE         CLOUDY    71  68  90 E5        29.97R
NATCHEZ MS     CLOUDY    73  66  78 SE12      29.98R
BATON ROUGE    CLOUDY    77  66  68 E8        29.97R
N.O. INTL ARPT CLOUDY    79  71  76 SE10      29.96R
SLIDELL        MOSUNNY   78  70  76 SE12      29.97R
$$

MARINE REPORTS

STATION/POSITION TIME  SKY/WX   TEMP    WIND        PRES    VSBY
                                AIR SEA DIR/SP/G
                 (UTC)          (F)     (DEG/KT/KT) (MB)    (MI)
BUOY 30 S HIGH I 1350            78 80  180/ 12/ 14 1012.8R
WVE H/P(F/S)=  5/ 7

SEA RIM ST PARK  1400            80     210/  6/  8 1014.0R
PORT ARTHUR      1300               78              1012.8R
SABINE PASS N    1300            79 79   CALM  /  2 1013.8R
TEXAS POINT      NOT AVBL
CALCASIEU PASS   1300            74 78   80/  5/  6 1011.8R
LK CHARLES BEACH 1300            70 77              1013.1R
MARSH ISLAND     1300            78                   N/A
FRESH WATER LOCK 1300            77 79  130/  8/ 10 1013.1R
AMERADA PASS     1300            77 74  110/  5/  7 1012.7R
$$



USA.gov is the U.S. government's official web portal to all federal, state and local government web resources and services.